Flag for Australia Weather past 2 weeks in Toowoomba, Queensland, Australia

Now
44 °F

Quite cool.


Feels Like: 39 °F
Forecast: 45 / 66 °F
Wind: 8 mph from West

Location: Oakey Aerodrome

Current Time: Sep 4, 2015 at 1:39:28 AM

Latest Report: Sep 4, 2015 at 12:00 AM


Visibility: N/A

Pressure: 30.03 "Hg (27.92 "Hg at 597m altitude)

Humidity: 86%

Dew point: 40 °F

Location of ToowoombaLocation

Historic Weather in Toowoomba — Graph

°F

Toowoomba temperature yesterday

Maximum temperature yesterday: 68 °F (at 3:00 PM)
Minimum temperature yesterday: 46 °F (at 10:00 PM)
Average temperature yesterday: 60 °F

Past Weeks' High & Low Weather Summary

 TemperatureHumidityPressure
High79 °F (Aug 24, 3:00 PM)100% (Aug 30, 7:00 AM)30.34 "Hg (Aug 30, 7:00 AM)
Low34 °F (Aug 31, 6:00 AM)21% (Sep 2, 1:00 PM)29.84 "Hg (Sep 3, 4:00 AM)
Average58 °F72%30.13 "Hg
* Reported Midnight between Aug 19 and Aug 20 — Midnight between Sep 3 and Sep 4, Toowoomba, Weather by CustomWeather, © 2015

Note: Actual official high and low records may vary slightly from our data, if they occured in-between our weather recording intervals... More about our weather records

Advertising

Toowoomba weather history for previous 24 hours

 ConditionsComfort  
Time TempWeatherWind HumidityBarometerVisibility
12:00 AM
Fri, Sep 4
44 °FQuite cool.8 mph86%30.03 "HgN/A
10:00 PM
Thu, Sep 3
46 °FCool.7 mph83%30.04 "HgN/A
9:00 PM48 °FCool.7 mph79%30.02 "HgN/A
7:00 PM57 °FRefreshingly cool.15 mph55%29.97 "HgN/A
6:00 PM60 °FRefreshingly cool.20 mph50%29.93 "HgN/A
4:00 PM65 °FMild.26 mph38%29.87 "HgN/A
3:00 PM68 °FPassing clouds.26 mph36%29.86 "HgN/A
1:00 PM66 °FMild.25 mph35%29.86 "HgN/A
12:00 PM64 °FPassing clouds.20 mph39%29.89 "HgN/A
10:00 AM60 °FRefreshingly cool.16 mph52%29.95 "HgN/A
9:00 AM60 °FOvercast.18 mph58%29.94 "HgN/A
7:00 AM64 °FMild.20 mph86%29.89 "HgN/A
6:00 AM61 °FOvercast.9 mph94%29.87 "HgN/A
4:00 AM61 °FCool.10 mph90%29.84 "HgN/A
3:00 AM59 °FCool.8 mph92%29.85 "HgN/A
1:00 AM57 °FCool.13 mph91%29.92 "HgN/A
Weather by CustomWeather, © 2015

See weather overviewHow to use our weather pages